Lexington Weather

Lexington, Massachusetts, USA

25°F
2/29/2020 2:32am 
  • Lexington Conditions: Clear
  • Temperature: 25.3°F / -3.7°CColder 1.1°F than last hour.
  • Dew Point: 14.9°FIncreased 0.9°Fsince last hour.
  • Relative Humidity: 64%Increased 5.0% since last hour.
  • Wind: Calm, 10-min avg: Calm, gust: None
  • Barometer: 29.73 in Steady
  • Visibility: 10 miles
  • Snow Today: 0.0 in
  •   

Regional Weather Roundup
for Boston / Norton, MA

        
000
ASUS41 KBOX 282301
RWRBOX

REGIONAL WEATHER ROUNDUP
NATIONAL WEATHER SERVICE BOSTON/NORTON MA
600 PM EST FRI FEB 28 2020

NOTE:  "FAIR" INDICATES FEW OR NO CLOUDS BELOW 12,000 FEET WITH NO 
SIGNIFICANT WEATHER AND/OR OBSTRUCTIONS TO VISIBILITY.

MAZALL-290000-
EASTERN MASSACHUSETTS
  
CITY           SKY/WX    TMP DP  RH WIND       PRES   REMARKS
BOSTON         MOCLDY    34   9  35 W15G28    29.76R WCI  24          
BEVERLY        CLOUDY    35   9  33 W9        29.74R WCI  28          
LAWRENCE       CLOUDY    34  10  37 SW12G21   29.76R WCI  25          
BEDFORD        MOCLDY    35   7  31 W8        29.74R WCI  29          
BLUE HILL        N/A     31   8  38 W13       29.72R WCI  21          
NORWOOD        FAIR      37   8  30 W7        29.76R WCI  32          
MARSHFIELD     NOT AVBL                                               
PLYMOUTH       FAIR      34  13  41 SW8       29.76R WCI  27          
TAUNTON        CLOUDY    35  10  35 SW8       29.76R WCI  29          
NEW BEDFORD    FAIR      34   9  35 W8        29.76R WCI  27          
$$

MAZALL-290000-
CAPE COD AND THE ISLANDS
  
CITY           SKY/WX    TMP DP  RH WIND       PRES   REMARKS
FALMOUTH       CLEAR     36  16  44 SW21G29   29.76R WCI  24          
HYANNIS        NOT AVBL                                               
CHATHAM        FAIR      35  16  45 W10G23    29.79R WCI  27          
PROVINCETOWN   FAIR      35  15  44 W17G23    29.77R WCI  25          
NANTUCKET      MOCLDY    38  22  52 W22G33    29.79R WCI  27          
MARTHAS VNYRD  FAIR      36  19  50 W8G18     29.79R WCI  30          
$$
 
MAZALL-290000-
CENTRAL AND WESTERN MASSACHUSETTS
  
CITY           SKY/WX    TMP DP  RH WIND       PRES   REMARKS
WORCESTER      MOCLDY    30   8  39 W12G20    29.71R WCI  20          
FITCHBURG      MOCLDY    32   7  35 W7        29.75R WCI  26          
ORANGE         MOCLDY    32   8  36 W12G21    29.74R WCI  23          
SPRINGFIELD    NOT AVBL                                               
WESTFIELD      NOT AVBL                                               
NORTH ADAMS    CLOUDY    28  10  46 W9        29.74R WCI  19          
PITTSFIELD     CLOUDY    27  11  51 W13       29.70R WCI  16          
$$
 
RIZALL-290000-
RHODE ISLAND
  
CITY           SKY/WX    TMP DP  RH WIND       PRES   REMARKS
PROVIDENCE     FAIR      36  11  35 SW9       29.77R WCI  29          
NEWPORT        FAIR      37   9  31 VRB7      29.76R WCI  32          
BLOCK ISLAND   CLOUDY    36  17  46 W12G18    29.79R WCI  28          
SMITHFIELD     MOCLDY    33   8  35 W7        29.75R WCI  27          
WESTERLY       FAIR      39  10  30 W12G24    29.78R WCI  32          
$$
 
CTZALL-290000-
CONNECTICUT
  
CITY           SKY/WX    TMP DP  RH WIND       PRES   REMARKS
BRADLEY INTL   FAIR      33   8  35 W10       29.77R WCI  25          
HARTFORD       FAIR      36   7  29 W8G18     29.78R WCI  30          
BRIDGEPORT     FAIR      38   7  27 W12G24    29.79R WCI  30          
DANBURY        FAIR      33   4  29 W8        29.78R WCI  26          
GROTON         NOT AVBL                                               
NEW HAVEN      FAIR      39  11  31 W9        29.78R                  
CHESTER        FAIR      36   5  27 W6G16     29.76R WCI  31          
MERIDEN        MOCLDY    36   6  28 VRB5      29.78R                  
WILLIMANTIC    MOCLDY    35   8  32 W6        29.77R WCI  30          
OXFORD         FAIR      33   6  32 W9        29.76R WCI  25          
$$

MEZ002-015-021-024-NHZ003-005-008-011-012-014-VTZ005-008-290000-
NORTHERN NEW ENGLAND
  
CITY           SKY/WX    TMP DP  RH WIND       PRES   REMARKS
PORTLAND ME    FAIR      33   8  35 W8        29.72R WCI  26          
BANGOR ME      FAIR      31  10  41 SW9       29.66R WCI  23          
CONCORD NH     FAIR      30   6  36 W10       29.73R WCI  21          
MANCHESTER NH  FAIR      32   7  35 W5        29.72R WCI  27          
NASHUA NH      CLOUDY    32   8  36 W3        29.75R                  
PORTSMOUTH NH  PTCLDY    32   7  34 SW8       29.72R WCI  25          
JAFFREY NH     CLOUDY    30   8  39 W7        29.70R WCI  23          
KEENE NH       CLOUDY    29  12  49 NW6       29.75R WCI  23          
BURLINGTON VT  FAIR      27  11  51 SW9       29.67R WCI  18          
MT. WASHINGTON SNOWSHWR   0   0 100 W61G69      N/A  VSB 1/16WCI -34  
$$

NYZ052-076-290000-
EASTERN NEW YORK
  
CITY           SKY/WX    TMP DP  RH WIND       PRES   REMARKS
ALBANY         MOCLDY    31   9  39 SW9       29.76R WCI  23          
NEW YORK CITY  MOCLDY    40   4  22 W18G26    29.80R WCI  31          
$$
 
ANZALL-290000-
MARINE OBSERVATIONS
  
STATION/POSITION TIME  TEMP    WIND        PRES    VSBY  WAVE
                       AIR SEA DIR/SP/G                  HT/PER
                 (UTC) (F)     (DEG/KT/KT) (MB)    (MI)  (FT/S)
BOSTON BUOY      2150   37 42  240/ 19/ 23 1006.0          3/ 4
BUZZARDS BAY     2200          250/ 24/ 28 1008.8R
NANTUCKET SOUND  2240                      1008.4
MASS BAY-STELLWA 2204   36 41  290/ 17/ 21 1004.8R  1 7/8  3/ 4
ISLE OF SHOALS   2200   35     260/ 20/ 22 1005.7R
S OF BLOCK IS    2230      44                N/A          10/ 8
$$

......................KEY.........................
  SKY/WX - SKY CONDITION/PRESENT WEATHER
  TMP    - TEMPERATURE IN FAHRENHEIT
  DWPT   - DEWPOINT IN FAHRENHEIT
  RH     - RELATIVE HUMIDITY IN PERCENT
  WIND   - DIRECTION AND SPEED IN MPH
  PRES   - MEAN SEA LEVEL PRESSURE IN INCHES OF HG
  WCI    - WIND CHILL INDEX
  VSB    - VISIBILITY IN MILES
  HX     - HEAT INDEX
  TC     - TEMPERATURE IN CELSIUS
  VRB    - VARIABLE WIND DIRECTION
  N/A    - NOT AVAILABLE
  
      

Other recent Regional Weather Roundups

Sat Feb 29, 2:10am

Sat Feb 29, 2:00am

Sat Feb 29, 1:10am

Sat Feb 29, 1:00am

Sat Feb 29, 12:10am

Sat Feb 29, 12:00am

Fri Feb 28, 11:10pm

Fri Feb 28, 11:00pm

Fri Feb 28, 10:10pm

Fri Feb 28, 10:00pm

Fri Feb 28, 9:10pm

Fri Feb 28, 9:00pm

Fri Feb 28, 8:10pm

Fri Feb 28, 8:01pm

Fri Feb 28, 7:10pm

Fri Feb 28, 7:00pm

Fri Feb 28, 6:10pm

Fri Feb 28, 5:10pm

Fri Feb 28, 5:00pm

Fri Feb 28, 4:10pm

Fri Feb 28, 4:01pm

Fri Feb 28, 3:10pm

Fri Feb 28, 3:00pm

Fri Feb 28, 2:10pm

Fri Feb 28, 2:00pm

Fri Feb 28, 1:10pm

Fri Feb 28, 1:01pm

Fri Feb 28, 12:10pm

Fri Feb 28, 12:01pm

Fri Feb 28, 11:10am

Fri Feb 28, 11:00am

Fri Feb 28, 10:10am

Fri Feb 28, 10:00am

Fri Feb 28, 9:10am

Fri Feb 28, 9:01am

Fri Feb 28, 8:10am

Fri Feb 28, 8:00am

Fri Feb 28, 7:10am

Fri Feb 28, 7:00am

Fri Feb 28, 6:10am

Fri Feb 28, 6:00am

Fri Feb 28, 5:10am

Fri Feb 28, 5:00am

Fri Feb 28, 4:10am

Fri Feb 28, 4:00am

Fri Feb 28, 3:10am

Fri Feb 28, 3:00am

Fri Feb 28, 2:10am

Fri Feb 28, 2:00am

Fri Feb 28, 1:10am

Fri Feb 28, 1:00am

Fri Feb 28, 12:10am

Fri Feb 28, 12:00am

Thu Feb 27, 11:10pm

Thu Feb 27, 11:01pm

Thu Feb 27, 10:10pm

Thu Feb 27, 10:00pm

Thu Feb 27, 9:10pm

Thu Feb 27, 9:00pm

Thu Feb 27, 8:10pm

Thu Feb 27, 8:01pm

Thu Feb 27, 7:10pm

Thu Feb 27, 7:00pm

Wed Feb 26, 11:10am

Wed Feb 26, 11:00am

Wed Feb 26, 10:10am

Wed Feb 26, 10:01am

Wed Feb 26, 9:10am

Wed Feb 26, 9:00am

Wed Feb 26, 8:10am

Wed Feb 26, 8:00am

Wed Feb 26, 7:10am

Wed Feb 26, 7:00am

Wed Feb 26, 6:10am

Wed Feb 26, 6:00am

Wed Feb 26, 5:10am

Wed Feb 26, 5:00am

Wed Feb 26, 4:10am

Wed Feb 26, 4:00am

Wed Feb 26, 3:10am

Wed Feb 26, 3:00am

Meta data:

ID: 076ae7ce-640b-4936-9139-0ee8c6208d97
Link: https://api.weather.gov/products/076ae7ce-640b-4936-9139-0ee8c6208d97